{"data":{"norad_id":66655,"intl_designator":"2025-274F","name":"CAS500-3","alt_names":[],"object_type":"PAYLOAD","status":"ACTIVE","operator":null,"country":"SKOR","launch_date":"2025-11-26","launch_site_code":"NSC","launch_vehicle":null,"mission":null,"orbit_class":"UNKNOWN","rcs_meters":null,"size_class":null,"mass_kg":null,"dimensions":null,"purposes":["earth_obs"],"wikipedia_slug":null,"has_3d_model":false,"image_url":null,"decayed_at":null,"tle_current":{"epoch":"2026-05-25T02:05:36.112992Z","epoch_age_seconds":67628,"freshness":"FRESH","line1":"1 66655U 25274F   26145.08722353  .00001028  00000+0  11711-3 0  9990","line2":"2 66655  97.7447  73.6652 0005079 175.8353 184.2907 14.88255319 26713","mean_motion":14.88255319,"eccentricity":0.0005079,"inclination_deg":97.7447,"raan_deg":73.6652,"arg_perigee_deg":175.8353,"mean_anomaly_deg":184.2907,"bstar":0.00011711,"rev_number":2671,"period_min":96.75759136326,"perigee_km":599.8407158383,"apogee_km":606.93254754337,"semimajor_km":6981.5236316908,"source":"CELESTRAK","updated_at":"2026-05-25T13:38:12.869423Z"}}}